When you browse on this site, cookies collect data to enhance your experience and personalize the content and advertising you see.
Visit our Privacy Policy to learn more. By continuing to use the site, you agree to this use of cookies and data.
  • In Hungary
  • List of Countries
  • For 7 days
  • Water Temperature
  • Weather Map
  • News
  • Weather Widgets
  • user-avatar
    Login

    Hourly Weather Stryszow

    Today, 23 September, Monday

    Time Temperature Precipitation Wind Pressure Humidity
    00:00 +11°C° 0 mm 1 mps 731 mmHg 77%
    01:00 +11°C° 0 mm 1 mps 731 mmHg 76%
    02:00 +11°C° 0 mm 1 mps 731 mmHg 74%
    03:00 +12°C° 0 mm 1 mps 731 mmHg 71%
    04:00 +12°C° 0 mm 1 mps 731 mmHg 69%
    05:00 +13°C° 0 mm 1 mps 731 mmHg 68%
    06:00 +13°C° 0 mm 1 mps 731 mmHg 68%
    07:00 +14°C° 0 mm 1 mps 731 mmHg 68%
    08:00 +15°C° 0 mm 1 mps 731 mmHg 65%
    09:00 +16°C° 0 mm 1 mps 731 mmHg 62%
    10:00 +18°C° 0 mm 1 mps 731 mmHg 59%
    11:00 +19°C° 0 mm 1 mps 731 mmHg 58%
    12:00 +19°C° 0 mm 1 mps 731 mmHg 58%
    13:00 +20°C° 0 mm 1 mps 731 mmHg 58%
    14:00 +20°C° 0 mm 1 mps 731 mmHg 60%
    15:00 +20°C° 0 mm 1 mps 731 mmHg 61%
    16:00 +20°C° 0 mm 1 mps 731 mmHg 63%
    17:00 +18°C° 0 mm 1 mps 731 mmHg 70%
    18:00 +15°C° 0 mm 1 mps 731 mmHg 76%
    19:00 +14°C° 0 mm 1 mps 731 mmHg 83%
    20:00 +13°C° 0 mm 1 mps 731 mmHg 85%
    21:00 +13°C° 0 mm 1 mps 731 mmHg 87%
    22:00 +12°C° 0 mm 1 mps 731 mmHg 89%
    23:00 +12°C° 0 mm 1 mps 731 mmHg 90%

    Tomorrow, 24 September, Tuesday

    Time Temperature Precipitation Wind Pressure Humidity
    00:00 +12°C° 0 mm 1 mps 731 mmHg 92%
    01:00 +11°C° 0 mm 1 mps 731 mmHg 93%
    02:00 +11°C° 0 mm 1 mps 731 mmHg 93%
    03:00 +11°C° 0 mm 1 mps 731 mmHg 93%
    04:00 +10°C° 0 mm 1 mps 731 mmHg 94%
    05:00 +11°C° 0 mm 1 mps 731 mmHg 92%
    06:00 +12°C° 0 mm 1 mps 731 mmHg 89%
    07:00 +12°C° 0 mm 1 mps 731 mmHg 87%
    08:00 +14°C° 0 mm 1 mps 731 mmHg 79%
    09:00 +16°C° 0 mm 1 mps 731 mmHg 70%
    10:00 +18°C° 0 mm 2 mps 731 mmHg 61%
    11:00 +19°C° 0 mm 2 mps 731 mmHg 58%
    12:00 +20°C° 0 mm 2 mps 731 mmHg 54%
    13:00 +21°C° 0 mm 3 mps 730 mmHg 51%
    14:00 +20°C° 0 mm 3 mps 730 mmHg 54%
    15:00 +20°C° 0 mm 2 mps 730 mmHg 58%
    16:00 +19°C° 0 mm 2 mps 729 mmHg 61%
    17:00 +18°C° 0 mm 2 mps 729 mmHg 67%
    18:00 +16°C° 0 mm 2 mps 729 mmHg 73%
    19:00 +14°C° 0 mm 2 mps 729 mmHg 79%
    20:00 +13°C° 0 mm 2 mps 729 mmHg 80%
    21:00 +13°C° 0 mm 2 mps 729 mmHg 81%
    22:00 +13°C° 0 mm 1 mps 729 mmHg 82%
    23:00 +13°C° 0 mm 1 mps 729 mmHg 81%

    Day after tomorrow, 25 September, Wednesday

    Time Temperature Precipitation Wind Pressure Humidity
    00:00 +13°C° 0 mm 1 mps 729 mmHg 80%
    01:00 +13°C° 0 mm 1 mps 729 mmHg 79%
    02:00 +13°C° 0 mm 1 mps 728 mmHg 78%
    03:00 +13°C° 0 mm 1 mps 728 mmHg 77%
    04:00 +13°C° 0 mm 1 mps 728 mmHg 76%
    05:00 +13°C° 0 mm 1 mps 728 mmHg 75%
    06:00 +14°C° 0 mm 1 mps 728 mmHg 75%
    07:00 +14°C° 0 mm 1 mps 728 mmHg 74%
    08:00 +16°C° 0 mm 1 mps 728 mmHg 69%
    09:00 +19°C° 0 mm 1 mps 728 mmHg 63%
    10:00 +20°C° 0 mm 1 mps 728 mmHg 58%
    11:00 +20°C° 0.2 mm 2 mps 728 mmHg 59%
    12:00 +20°C° 0.2 mm 3 mps 728 mmHg 60%
    13:00 +20°C° 0.2 mm 3 mps 728 mmHg 61%
    14:00 +19°C° 0.3 mm 3 mps 727 mmHg 68%
    15:00 +17°C° 0.3 mm 2 mps 727 mmHg 76%
    16:00 +16°C° 0.3 mm 2 mps 727 mmHg 83%
    17:00 +15°C° 0 mm 2 mps 727 mmHg 85%
    18:00 +14°C° 0 mm 2 mps 727 mmHg 87%
    19:00 +14°C° 0 mm 2 mps 727 mmHg 90%
    20:00 +14°C° 0 mm 2 mps 728 mmHg 89%
    21:00 +14°C° 0 mm 2 mps 728 mmHg 89%
    22:00 +13°C° 0 mm 2 mps 728 mmHg 88%
    23:00 +12°C° 0 mm 3 mps 728 mmHg 88%

    26 September, Thursday

    Time Temperature Precipitation Wind Pressure Humidity
    00:00 +12°C° 0 mm 3 mps 728 mmHg 88%
    01:00 +12°C° 0 mm 3 mps 728 mmHg 88%
    02:00 +12°C° 0 mm 3 mps 728 mmHg 89%
    03:00 +12°C° 0 mm 3 mps 729 mmHg 89%
    04:00 +13°C° 0 mm 2 mps 729 mmHg 89%
    05:00 +13°C° 0 mm 2 mps 729 mmHg 88%
    06:00 +13°C° 0 mm 2 mps 729 mmHg 88%
    07:00 +13°C° 0 mm 2 mps 729 mmHg 87%
    08:00 +13°C° 0 mm 3 mps 730 mmHg 81%
    09:00 +14°C° 0 mm 3 mps 730 mmHg 75%
    10:00 +17°C° 0 mm 3 mps 731 mmHg 69%
    11:00 +17°C° 0.2 mm 3 mps 730 mmHg 67%
    12:00 +17°C° 0.2 mm 3 mps 730 mmHg 66%
    13:00 +18°C° 0.2 mm 3 mps 730 mmHg 64%
    14:00 +18°C° 0.1 mm 3 mps 730 mmHg 66%
    15:00 +18°C° 0.1 mm 3 mps 730 mmHg 67%
    16:00 +17°C° 0.1 mm 2 mps 730 mmHg 69%
    17:00 +16°C° 0 mm 2 mps 730 mmHg 74%
    18:00 +14°C° 0 mm 2 mps 730 mmHg 80%
    19:00 +13°C° 0 mm 2 mps 731 mmHg 86%
    20:00 +12°C° 0 mm 2 mps 731 mmHg 87%
    21:00 +12°C° 0 mm 2 mps 731 mmHg 88%
    22:00 +12°C° 0 mm 2 mps 732 mmHg 89%
    23:00 +12°C° 0 mm 2 mps 732 mmHg 90%

    27 September, Friday

    Time Temperature Precipitation Wind Pressure Humidity
    00:00 +10°C° 0 mm 2 mps 732 mmHg 90%
    01:00 +11°C° 0 mm 1 mps 732 mmHg 91%
    02:00 +11°C° 0 mm 1 mps 732 mmHg 91%
    03:00 +11°C° 0 mm 1 mps 732 mmHg 92%
    04:00 +11°C° 0 mm 1 mps 732 mmHg 92%
    05:00 +11°C° 0 mm 1 mps 732 mmHg 91%
    06:00 +12°C° 0 mm 1 mps 732 mmHg 89%
    07:00 +13°C° 0 mm 1 mps 732 mmHg 87%
    08:00 +15°C° 0 mm 2 mps 732 mmHg 80%
    09:00 +17°C° 0 mm 2 mps 733 mmHg 74%
    10:00 +19°C° 0 mm 2 mps 733 mmHg 67%
    11:00 +20°C° 0 mm 2 mps 733 mmHg 65%
    12:00 +20°C° 0 mm 2 mps 733 mmHg 63%
    13:00 +21°C° 0 mm 3 mps 732 mmHg 60%
    14:00 +21°C° 0 mm 2 mps 732 mmHg 65%
    15:00 +20°C° 0 mm 2 mps 732 mmHg 69%
    16:00 +21°C° 0 mm 1 mps 732 mmHg 73%
    17:00 +19°C° 0 mm 1 mps 732 mmHg 77%
    18:00 +17°C° 0 mm 2 mps 732 mmHg 82%
    19:00 +15°C° 0 mm 2 mps 732 mmHg 86%
    20:00 +15°C° 0 mm 2 mps 732 mmHg 86%
    21:00 +15°C° 0 mm 2 mps 732 mmHg 86%
    22:00 +15°C° 0 mm 2 mps 732 mmHg 86%
    23:00 +14°C° 0 mm 2 mps 732 mmHg 86%

    28 September, Saturday

    Time Temperature Precipitation Wind Pressure Humidity
    00:00 +14°C° 0 mm 2 mps 732 mmHg 87%
    01:00 +14°C° 0 mm 2 mps 731 mmHg 87%
    02:00 +14°C° 0 mm 2 mps 731 mmHg 87%
    03:00 +13°C° 0 mm 1 mps 732 mmHg 87%
    04:00 +13°C° 0 mm 1 mps 732 mmHg 87%
    05:00 +14°C° 0 mm 1 mps 731 mmHg 85%
    06:00 +14°C° 0 mm 1 mps 731 mmHg 83%
    07:00 +15°C° 0 mm 1 mps 731 mmHg 81%
    08:00 +16°C° 0 mm 1 mps 731 mmHg 75%
    09:00 +18°C° 0 mm 2 mps 732 mmHg 69%
    10:00 +19°C° 0 mm 2 mps 732 mmHg 64%
    11:00 +18°C° 0.7 mm 2 mps 731 mmHg 73%
    12:00 +17°C° 0.7 mm 2 mps 731 mmHg 82%
    13:00 +15°C° 0.7 mm 2 mps 731 mmHg 91%
    14:00 +15°C° 0.3 mm 2 mps 731 mmHg 91%
    15:00 +15°C° 0.3 mm 2 mps 730 mmHg 90%
    16:00 +15°C° 0.3 mm 2 mps 730 mmHg 90%
    17:00 +15°C° 0 mm 2 mps 730 mmHg 91%
    18:00 +14°C° 0 mm 2 mps 730 mmHg 92%
    19:00 +14°C° 0 mm 1 mps 730 mmHg 92%
    20:00 +14°C° 0 mm 2 mps 730 mmHg 92%
    21:00 +13°C° 0 mm 2 mps 730 mmHg 91%
    22:00 +12°C° 0 mm 3 mps 730 mmHg 91%
    23:00 +12°C° 0 mm 3 mps 730 mmHg 91%
    Show more